Weather History for Fairbanks, AK

Change the Weather History Date:

Saturday, February 8, 2014

  Actual Average Record
Temperature  
Mean Temperature -14 °F -4 °F  
Max Temperature -4 °F 7 °F 39 °F (1986)
Min Temperature -25 °F -14 °F -50 °F (1979)
Degree Days  
Heating Degree Days 79 69  
Month to date heating degree days 491 561  
Since 1 July heating degree days 7946 9093  
Cooling Degree Days 0 0  
Month to date cooling degree days 0 0  
Year to date cooling degree days 0 0  
Moisture  
Dew Point -21 °F    
Average Humidity 73    
Maximum Humidity 86    
Minimum Humidity 55    
Precipitation  
Precipitation 0.00 in 0.02 in 0.27 in (1914)
Month to date precipitation 0.18 0.13  
Year to date precipitation 0.40 0.71  
Snow  
Snow 0.00 in 0.30 in 3.80 in (1914)
Month to date snowfall 4.4 2.4  
Since 1 July snowfall 40.2 50.6  
Snow Depth 20.00 in    
Sea Level Pressure  
Sea Level Pressure 30.61 in    
Wind  
Wind Speed 2 mph (ENE)    
Max Wind Speed 6 mph    
Max Gust Speed -    
Visibility 10 miles    
Events Fog    
T = Trace of Precipitation, MM = Missing Value Source: NWS Daily Summary

Daily Weather History Graph

Daily Weather History Graph

Search for Another Location

Airport:

Trip Planner

Search our weather history database for the weather conditions in past years. The results will help you decide how hot, cold, wet, or windy it might be!

Date:

Astronomy

Feb. 08, 2014 Rise Set
Actual Time 9:13 AM AKST 4:59 PM AKST
Civil Twilight 8:17 AM AKST 5:54 PM AKST
Nautical Twilight 7:19 AM AKST 6:53 PM AKST
Astronomical Twilight 6:22 AM AKST 7:50 PM AKST
Moon 11:15 AM AKST (2/8) 5:17 AM AKST (2/8)
Length of Visible Light 9h 36m
Length of Day
7h 46m
Waxing Gibbous, 70% of the Moon is Illuminated
Feb 8
Waxing Gibbous
Feb 14
Full
Feb 22
Last Quarter
Feb 28
New
Mar 8
First Quarter

Hourly Weather History & Observations

Time (AKST) Temp. Windchill Dew Point Humidity Pressure Visibility Wind Dir Wind Speed Gust Speed Precip Events Conditions
12:53 AM -13.0 °F -27.0 °F -17.0 °F 82% 30.54 in 10.0 mi NNE 5.8 mph - N/A   Clear
1:53 AM -9.0 °F -18.2 °F -15.0 °F 75% 30.56 in 10.0 mi ENE 3.5 mph - N/A   Clear
3:53 AM -15.0 °F - -18.9 °F 82% 30.58 in 10.0 mi Calm Calm - N/A   Clear
4:53 AM -17.0 °F - -20.0 °F 86% 30.58 in 10.0 mi Calm Calm - N/A   Clear
5:53 AM -17.0 °F -27.2 °F -24.0 °F 70% 30.59 in 10.0 mi NNE 3.5 mph - N/A   Clear
6:53 AM -16.1 °F -28.6 °F -20.9 °F 79% 30.59 in 10.0 mi SSE 4.6 mph - N/A   Clear
7:53 AM -17.0 °F - -24.0 °F 70% 30.61 in 10.0 mi Calm Calm - N/A   Clear
8:53 AM -16.1 °F -30.6 °F -23.1 °F 71% 30.62 in 10.0 mi South 5.8 mph - N/A   Clear
9:53 AM -18.0 °F -28.5 °F -25.1 °F 70% 30.63 in 10.0 mi ENE 3.5 mph - N/A Fog Patches of Fog
10:53 AM -13.0 °F - -18.9 °F 75% 30.63 in 10.0 mi Calm Calm - N/A   Partly Cloudy
11:53 AM -9.0 °F - -16.1 °F 71% 30.63 in 10.0 mi Calm Calm - N/A   Partly Cloudy
12:53 PM -6.0 °F -14.7 °F -15.0 °F 65% 30.63 in 10.0 mi NNW 3.5 mph - N/A   Partly Cloudy
1:53 PM -9.0 °F - -14.1 °F 79% 30.62 in 10.0 mi Calm Calm - N/A   Partly Cloudy
2:53 PM -4.0 °F -12.4 °F -9.9 °F 76% 30.62 in 10.0 mi South 3.5 mph - N/A   Partly Cloudy
3:53 PM -5.1 °F - -13.0 °F 69% 30.62 in 10.0 mi Calm Calm - N/A   Partly Cloudy
4:53 PM -8.0 °F - -14.1 °F 75% 30.62 in 10.0 mi Calm Calm - N/A   Partly Cloudy
5:53 PM -17.0 °F - -22.0 °F 78% 30.63 in 10.0 mi Calm Calm - N/A   Partly Cloudy
6:53 PM -18.9 °F - -25.1 °F 74% 30.64 in 10.0 mi Calm Calm - N/A   Clear
7:53 PM -23.1 °F - -29.9 °F 70% 30.64 in 10.0 mi Calm Calm - N/A   Partly Cloudy
8:53 PM -23.1 °F - -27.9 °F 78% 30.64 in 10.0 mi Calm Calm - N/A   Partly Cloudy
9:53 PM -22.0 °F - -29.0 °F 70% 30.63 in 10.0 mi Calm Calm - N/A   Clear
10:53 PM -20.9 °F - -27.9 °F 70% 30.62 in 7.0 mi Calm Calm - N/A   Clear
11:53 PM -20.9 °F - -27.0 °F 73% 30.61 in 10.0 mi Calm Calm - N/A   Clear